Regional Weather Roundup
Issued by NWS

Home | Current Version | Previous Version | Graphics & Text | Print | Product List | Glossary On
Versions: 1 2 3 4 5 6 7 8 9 10 11 12 13 14 15 16 17 18 19 20 21 22 23 24 25 26 27 28 29 30 31 32 33 34 35 36 37 38 39 40 41 42 43 44 45 46 47 48 49 50
491
ASUS44 KJAN 201610
RWRMS

MISSISSIPPI HOURLY WEATHER ROUNDUP
NATIONAL WEATHER SERVICE JACKSON MS
1100 AM CDT SUN APR 20 2014

NOTE: "FAIR: INDICATES FEW OR NO CLOUDS BELOW 12,000 FEET WITH NO
SIGNIFICANT WEATHER AND/OR OBSTRUCTIONS TO VISIBILITY.

MSZ001>002-007>008-010>013-018>021-025>028-034>036-201700-
NORTHWEST MISSISSIPPI

CITY           SKY/WX    TMP DP  RH WIND       PRES   REMARKS
CLARKSDALE       N/A     72  52  49 SE9       30.23S
CLEVELAND      FAIR      71  53  51 SE8       30.22S
GREENWOOD      SUNNY     73  54  51 S10       30.23S
GREENVILLE     SUNNY     72  52  49 VRB5      30.21S
GRENADA        FAIR      70  54  56 SE8       30.24F
OLIVE BRANCH   PTSUNNY   72  48  43 S9        30.23S
OXFORD         FAIR      68  48  49 SE5       30.25F
TUNICA         SUNNY     72  50  46 S9        30.22F
$$

MSZ003>006-009-014>017-022>024-029>033-037>039-201700-
NORTHEAST MISSISSIPPI

CITY           SKY/WX    TMP DP  RH WIND       PRES   REMARKS
BELMONT        FAIR      69  48  47 CALM      30.25F
COLUMBUS AFB   SUNNY     69  46  43 SE7       30.25F
CORINTH        FAIR      70  46  43 SW8       30.24F
GOLDN TRIANGLE SUNNY     66  46  48 SE7       30.28F
STARKVILLE     FAIR      68  50  52 SE6       30.25F
TUPELO         SUNNY     70  48  45 SW12      30.25F
$$

MSZ040-058-201700-
CENTRAL MISSISSIPPI

CITY           SKY/WX    TMP DP  RH WIND       PRES   REMARKS
JACKSON INTL   SUNNY     72  54  53 CALM      30.22F
JACKSON HAWKNS SUNNY     71  54  54 CALM      30.23S
MERIDIAN KEY   SUNNY     67  50  54 E8        30.24S
MERIDIAN NAS   SUNNY     67  51  56 E9        30.25F
RAYMOND        FAIR      72  66  83 S5        30.22F
VICKSBURG      SUNNY     74  56  53 SE7       30.21S
$$

MSZ059>079-201700-
SOUTH MISSISSIPPI

CITY           SKY/WX    TMP DP  RH WIND       PRES   REMARKS
BROOKHAVEN     FAIR      72  57  60 SE3       30.23F
COLUMBIA       FAIR      72  57  60 MISG      30.21S
HATTIESBURG    SUNNY     72  55  55 VRB6      30.22F
MCCOMB         MOSUNNY   72  57  59 S6        30.21S
NATCHEZ        SUNNY     75  54  46 SE6       30.19F
PINE BELT      SUNNY     70  54  56 NE7       30.23S
$$

MSZ080>082-201700-
COASTAL MISSISSIPPI

CITY           SKY/WX    TMP DP  RH WIND       PRES   REMARKS
BAY ST LOUIS   SUNNY     72  54  53 CALM      30.19F
BILOXI         SUNNY     71  57  59 N6        30.19S
PASCAGOULA     SUNNY     71  54  54 N10       30.18F
GULFPORT       SUNNY     74  54  49 N6        30.18F
$$



USA.gov is the U.S. government's official web portal to all federal, state and local government web resources and services.